Home   Weather   Oranienburg   Past weeks

Flag for Germany Past Weather in Oranienburg, Brandenburg, Germany — Yesterday and Last 2 Weeks

Now
66 °F

Light rain. Mostly cloudy.


Feels Like: 66 °F
Forecast: 58 / 68 °F
Wind: 12 mph from West

Location: Berlin-Tegel

Current Time: Aug 19, 2017 at 12:14:34 am

Latest Report: Aug 18, 2017 at 11:50 pm


Visibility: N/A

Pressure: 29.83 "Hg

Humidity: 88%

Dew Point: 63 °F

Location of OranienburgLocation

Past Weather in Oranienburg — Graph

°F

Oranienburg Temperature Yesterday

Maximum temperature yesterday: 79 °F (at 3:50 pm)
Minimum temperature yesterday: 64 °F (at 2:20 am)
Average temperature yesterday: 71 °F

High & Low Weather Summary for the Past Weeks

 TemperatureHumidityPressure
High82 °F (Aug 15, 3:50 pm)100% (Aug 6, 12:20 am)30.24 "Hg (Aug 6, 12:20 am)
Low52 °F (Aug 7, 4:50 am)30% (Aug 9, 6:50 pm)29.77 "Hg (Aug 18, 7:50 pm)
Average67 °F70%30.01 "Hg
* Reported Aug 3 11:20 pm — Aug 18 11:20 pm, Oranienburg. Weather by CustomWeather, © 2017

Note: Actual official high and low records may vary slightly from our data, if they occured in-between our weather recording intervals... More about our weather records

Advertising

Oranienburg Weather History for the Previous 24 Hours

Scroll right to see more
 ConditionsComfort  
Time TempWeatherWind HumidityBarometerVisibility
11:20 pm
Fri, Aug 18
66 °FLight rain. Mostly cloudy.10 mph94%29.83 "HgN/A
10:50 pm66 °FPassing clouds.7 mph94%29.80 "HgN/A
10:20 pm66 °FPartly cloudy.6 mph94%29.80 "HgN/A
9:50 pm68 °FLight rain. Partly cloudy.5 mph94%29.80 "HgN/A
9:20 pm68 °FLight rain. Passing clouds.3 mph94%29.80 "HgN/A
8:50 pm68 °FSprinkles. Partly cloudy.5 mph88%29.83 "Hg5 mi
8:20 pm70 °FStrong thunderstorms. Broken clouds.3 mph94%29.80 "Hg3 mi
7:53 pm72 °FThunderstorms. Broken clouds.6 mph83%29.80 "HgN/A
7:50 pm72 °FThundershowers. Broken clouds.6 mph83%29.77 "HgN/A
7:20 pm73 °FSprinkles. Partly sunny.3 mph74%29.80 "HgN/A
6:50 pm75 °FBroken clouds.2 mph69%29.80 "HgN/A
6:20 pm73 °FPartly sunny.2 mph74%29.80 "HgN/A
5:50 pm73 °FPartly sunny.5 mph74%29.83 "HgN/A
5:20 pm73 °FPartly sunny.7 mph69%29.83 "HgN/A
4:50 pm73 °FThundershowers. Broken clouds.14 mph69%29.86 "HgN/A
4:20 pm79 °FThundershowers. Broken clouds.10 mph58%29.86 "HgN/A
3:50 pm79 °FBroken clouds.8 mph61%29.86 "HgN/A
3:20 pm77 °FBroken clouds.8 mph65%29.86 "HgN/A
2:50 pm77 °FSunny.8 mph65%29.89 "Hg10 mi
2:20 pm75 °FBroken clouds.9 mph65%29.89 "HgN/A
1:50 pm77 °FBroken clouds.12 mph61%29.92 "HgN/A
1:20 pm77 °FBroken clouds.12 mph65%29.92 "HgN/A
12:50 pm75 °FBroken clouds.8 mph65%29.92 "HgN/A
12:20 pm77 °FBroken clouds.8 mph65%29.92 "HgN/A
11:50 am75 °FBroken clouds.7 mph65%29.95 "HgN/A
11:20 am75 °FPartly sunny.7 mph69%29.95 "HgN/A
10:50 am72 °FPartly sunny.9 mph73%29.98 "HgN/A
10:20 am72 °FPartly sunny.8 mph73%29.98 "HgN/A
9:50 am72 °FPartly sunny.7 mph73%29.98 "HgN/A
9:20 am72 °FPartly sunny.6 mph78%29.95 "HgN/A
8:50 am70 °FMild.6 mph78%29.95 "HgN/A
8:20 am68 °FScattered clouds.7 mph83%29.98 "HgN/A
7:50 am68 °FPartly sunny.5 mph83%29.98 "HgN/A
7:20 am68 °FPartly sunny.3 mph83%29.98 "HgN/A
6:50 am66 °FFog.3 mph88%29.98 "HgN/A
6:20 am66 °FFog.3 mph88%29.98 "HgN/A
5:50 am64 °FFog.1 mph94%29.98 "HgN/A
5:20 am64 °FPassing clouds.1 mph94%29.98 "HgN/A
4:50 am66 °FPassing clouds.3 mph88%29.98 "HgN/A
4:20 am66 °FPassing clouds.1 mph88%29.98 "HgN/A
3:50 am66 °FPassing clouds.2 mph88%29.98 "HgN/A
3:20 am66 °FPassing clouds.2 mph88%29.98 "HgN/A
2:50 am66 °FPassing clouds.3 mph88%29.98 "HgN/A
2:20 am64 °FPassing clouds.3 mph94%29.98 "HgN/A
1:50 am66 °FPassing clouds.5 mph88%29.98 "HgN/A
1:20 am68 °FPassing clouds.6 mph88%29.98 "HgN/A
12:50 am68 °FClear.8 mph88%29.98 "Hg10 mi
12:20 am68 °FClear.8 mph88%29.98 "Hg10 mi
Weather by CustomWeather, © 2017

See weather overviewHow to use our weather pages